Flag for Switzerland Weather past 2 weeks in Basel, Basel-Stadt, Switzerland

Now
60 °F

Overcast.


Feels Like: 60 °F
Forecast: 42 / 68 °F
Wind: 2 mph from East

Location: Bale-Mulhouse

Current Time: May 22, 2015 at 9:50:14 PM

Latest Report: May 22, 2015 at 9:00 PM


Visibility: 25 mi

Pressure: 30.15 "Hg

Humidity: 51%

Dew point: 42 °F

Location of BaselLocation

Historic Weather in Basel — Graph

°F

Basel temperature yesterday

Maximum temperature yesterday: 62 °F (at 5:00 PM)
Minimum temperature yesterday: 42 °F (at 6:00 AM)
Average temperature yesterday: 52 °F

Past Weeks' High & Low Weather Summary

 TemperatureHumidityPressure
High87 °F (May 12, 4:00 PM)98% (May 16, 6:00 AM)30.38 "Hg (May 16, 6:00 AM)
Low39 °F (May 22, 5:00 AM)24% (May 12, 4:00 PM)29.75 "Hg (May 18, 8:00 PM)
Average60 °F68%30.10 "Hg
* Reported May 7 8:00 PM — May 22 8:00 PM, Basel, Weather by CustomWeather, © 2015

Note: Actual official high and low records may vary slightly from our data, if they occured in-between our weather recording intervals... More about our weather records

Advertising

Basel weather history for previous 24 hours

 ConditionsComfort  
Time TempWeatherWind HumidityBarometerVisibility
8:00 PM
Fri, May 22
61 °FOvercast.7 mph47%30.14 "Hg25 mi
7:00 PM62 °FOvercast.3 mph46%30.14 "Hg25 mi
6:00 PM63 °FOvercast.6 mph43%30.15 "Hg25 mi
5:00 PM63 °FOvercast.6 mph39%30.16 "Hg25 mi
4:00 PM65 °FOvercast.9 mph36%30.17 "Hg25 mi
3:00 PM64 °FPartly sunny.9 mph39%30.19 "Hg25 mi
2:00 PM65 °FPartly sunny.9 mph39%30.20 "Hg25 mi
1:00 PM63 °FScattered clouds.9 mph39%30.23 "Hg19 mi
12:00 PM61 °FPassing clouds.9 mph49%30.26 "Hg19 mi
11:00 AM57 °FPassing clouds.6 mph60%30.28 "Hg12 mi
10:00 AM53 °FPassing clouds.5 mph68%30.30 "Hg9 mi
9:00 AM49 °FPassing clouds.1 mph85%30.32 "Hg3 mi
8:00 AM43 °FFog.No wind97%30.34 "Hg1 mi
7:00 AM42 °FFog.2 mph98%30.34 "Hg1 mi
6:00 AM40 °FFog.2 mph96%30.34 "Hg1 mi
5:00 AM39 °FFog.2 mph96%30.34 "Hg2 mi
4:00 AM40 °FQuite cool.2 mph97%30.34 "Hg4 mi
3:00 AM42 °FQuite cool.No wind96%30.35 "Hg2 mi
2:00 AM43 °FQuite cool.No wind97%30.34 "Hg2 mi
1:00 AM43 °FQuite cool.2 mph91%30.34 "Hg4 mi
12:00 AM47 °FPassing clouds.3 mph88%30.34 "Hg9 mi
10:00 PM
Thu, May 21
52 °FPassing clouds.6 mph70%30.32 "Hg25 mi
9:00 PM54 °FPartly sunny.5 mph64%30.29 "Hg25 mi
Weather by CustomWeather, © 2015

See weather overviewHow to use our weather pages